EW1895 Weather Reports


time (UTC)temp
C
wind
direction
speed
KPH
gust
KPH
rain 1hr
cm
rain 24hr
cm
rain mn
cm
humidity
%
barometer
mb
20260901030005 24 317 0.0 0.0 0.00 0.00 0.00 89 1018.4
20260901024509 24 317 0.0 0.0 0.00 0.00 0.00 89 1018.4
20260901023004 25 317 0.0 0.0 0.00 0.00 0.00 88 1018.3
20260901021504 25 317 0.0 0.0 0.00 0.00 0.00 88 1018.5
20260901020004 25 321 0.0 0.0 0.00 0.00 0.00 87 1018.6
20260901014503 25 321 0.0 0.0 0.00 0.00 0.00 87 1018.5
20260901013003 25 321 0.0 0.0 0.00 0.00 0.00 87 1018.4
20260901011503 26 321 0.0 0.0 0.00 0.00 0.00 86 1018.2
20260901010002 26 321 0.0 0.0 0.00 0.00 0.00 86 1018.2
20260901004505 26 348 0.0 0.0 0.00 0.00 0.00 85 1018.2
20260901003005 26 348 0.0 0.0 0.00 0.00 0.00 83 1018.3
20260901001509 27 348 0.0 0.0 0.00 0.00 0.00 82 1018.3
20260901000005 27 348 0.0 0.0 0.00 0.00 0.00 81 1018.1
20260831234501 27 348 0.0 0.0 0.00 0.00 0.00 80 1017.9
20260831233001 27 348 0.0 0.0 0.00 0.00 0.00 79 1018.0
20260831231602 28 348 0.0 0.0 0.00 0.00 0.00 77 1018.1
20260831224602 28 348 0.0 0.0 0.00 0.00 0.00 75 1017.9
20260831223103 29 348 0.0 0.0 0.00 0.00 0.00 74 1018.0
20260831221600 29 348 0.0 0.0 0.00 0.00 0.00 71 1018.0
20260831220104 30 348 0.0 0.0 0.00 0.00 0.00 69 1018.0
20260831214624 30 348 0.0 1.6 0.00 0.00 0.00 67 1017.9
20260831213059 31 348 0.0 0.0 0.00 0.00 0.00 63 1017.8
20260831211559 32 348 0.0 4.8 0.00 0.00 0.00 59 1017.6
20260831210058 33 26 0.0 1.6 0.00 0.00 0.00 54 1017.8
20260831204602 33 26 0.0 0.0 0.00 0.00 0.00 55 1017.8
20260831203058 33 26 0.0 0.0 0.00 0.00 0.00 51 1017.8
20260831201554 34 26 0.0 1.6 0.00 0.00 0.00 50 1017.8
20260831200053 34 350 0.0 1.6 0.00 0.00 0.00 51 1017.9
20260831194551 34 63 0.0 0.0 0.00 0.00 0.00 50 1018.1
20260831193052 34 60 0.0 0.0 0.00 0.00 0.00 53 1018.1
20260831191548 33 61 0.0 0.0 0.00 0.00 0.00 54 1018.2
20260831190110 34 61 0.0 1.6 0.00 0.00 0.00 54 1018.4
20260831184549 33 57 0.0 0.0 0.00 0.00 0.00 57 1018.7
20260831183057 33 51 0.0 1.6 0.00 0.00 0.00 57 1018.6
20260831181545 33 95 0.0 3.2 0.00 0.00 0.00 57 1018.8
20260831180043 33 65 0.0 4.8 0.00 0.00 0.00 55 1018.8
20260831174541 33 69 0.0 1.6 0.00 0.00 0.00 57 1018.9
20260831173040 33 108 0.0 6.4 0.00 0.00 0.00 58 1019.0
20260831171542 33 242 0.0 6.4 0.00 0.00 0.00 54 1019.1
20260831170038 33 240 0.0 1.6 0.00 0.00 0.00 58 1019.1
20260831164536 33 297 0.0 3.2 0.00 0.00 0.00 56 1019.3
20260831163041 32 163 0.0 3.2 0.00 0.00 0.00 57 1019.4
20260831161533 32 163 0.0 0.0 0.00 0.00 0.00 61 1019.6
20260831160038 31 167 0.0 8.0 0.00 0.00 0.00 62 1019.6
20260831154523 31 61 0.0 0.0 0.00 0.00 0.00 62 1019.6
20260831153021 31 319 0.0 4.8 0.00 0.00 0.00 65 1019.5
20260831151523 30 319 0.0 3.2 0.00 0.00 0.00 65 1019.5
20260831150022 30 319 0.0 6.4 0.00 0.00 0.00 69 1019.5
20260831144520 29 319 1.6 6.4 0.00 0.00 0.00 71 1019.5
20260831143012 28 279 0.0 0.0 0.00 0.00 0.00 72 1019.5
20260831141507 28 194 0.0 0.0 0.00 0.00 0.00 75 1019.6
20260831140003 27 194 0.0 0.0 0.00 0.00 0.00 79 1019.6
20260831134603 26 194 0.0 0.0 0.00 0.00 0.00 82 1019.7
20260831133055 25 194 0.0 0.0 0.00 0.00 0.00 89 1019.8
20260831131556 23 194 0.0 0.0 0.00 0.00 0.00 93 1019.6
20260831130054 22 194 0.0 0.0 0.00 0.00 0.00 94 1019.7
20260831124550 22 194 0.0 0.0 0.00 0.00 0.00 95 1019.6
20260831123043 22 194 0.0 0.0 0.00 0.00 0.00 95 1019.6
20260831121541 21 194 0.0 0.0 0.00 0.00 0.00 95 1019.5
20260831120052 21 194 0.0 0.0 0.00 0.00 0.00 95 1019.5
20260831114539 21 194 0.0 0.0 0.00 0.00 0.00 95 1019.4
20260831113038 20 194 0.0 0.0 0.00 0.00 0.00 95 1019.1
20260831111537 20 194 0.0 0.0 0.00 0.00 0.00 95 1019.1
20260831110034 20 194 0.0 0.0 0.00 0.00 0.00 94 1018.8
20260831104533 21 194 0.0 0.0 0.00 0.00 0.00 95 1018.7
20260831103032 21 194 0.0 0.0 0.00 0.00 0.00 94 1018.7
20260831101532 21 194 0.0 0.0 0.00 0.00 0.00 94 1018.7
20260831100031 21 194 0.0 0.0 0.00 0.00 0.00 94 1018.6
20260831094531 21 194 0.0 0.0 0.00 0.00 0.00 94 1018.4
20260831093028 21 194 0.0 0.0 0.00 0.00 0.00 94 1018.4
20260831091528 21 194 0.0 0.0 0.00 0.00 0.00 94 1018.5
20260831090030 21 194 0.0 0.0 0.00 0.00 0.00 94 1018.5
20260831084532 21 194 0.0 0.0 0.00 0.00 0.00 94 1018.5
20260831083027 21 194 0.0 0.0 0.00 0.00 0.00 93 1018.6
20260831081526 21 194 0.0 0.0 0.00 0.00 0.00 93 1018.4
20260831080033 21 194 0.0 0.0 0.00 0.00 0.00 93 1018.4
20260831074524 21 194 0.0 0.0 0.00 0.00 0.00 93 1018.5
20260831073023 21 194 0.0 0.0 0.00 0.00 0.00 92 1018.4
20260831071522 22 194 0.0 0.0 0.00 0.00 0.00 92 1018.4
20260831070020 22 194 0.0 0.0 0.00 0.00 0.00 92 1018.5
20260831064519 22 194 0.0 0.0 0.00 0.00 0.00 92 1018.7
20260831063016 22 194 0.0 0.0 0.00 0.00 0.00 92 1018.7
20260831061516 22 194 0.0 0.0 0.00 0.00 0.00 92 1018.7
20260831060015 22 194 0.0 0.0 0.00 0.00 0.00 92 1018.8
20260831054515 22 194 0.0 0.0 0.00 0.00 0.00 92 1019.0
20260831053024 22 194 0.0 0.0 0.00 0.00 0.00 92 1019.1
20260831051515 22 194 0.0 0.0 0.00 0.00 0.00 91 1019.1
20260831050025 23 194 0.0 0.0 0.00 0.00 0.00 91 1019.2
20260831044515 23 194 0.0 0.0 0.00 0.00 0.00 90 1019.3
20260831043013 23 194 0.0 0.0 0.00 0.00 0.00 89 1019.3
20260831041514 23 194 0.0 0.0 0.00 0.00 0.00 89 1019.4
20260831040015 24 194 0.0 0.0 0.00 0.00 0.00 89 1019.4
20260831034515 24 194 0.0 0.0 0.00 0.00 0.00 88 1019.4
20260831033014 24 194 0.0 0.0 0.00 0.00 0.00 88 1019.5
20260831031513 24 194 0.0 0.0 0.00 0.00 0.00 87 1019.6